Погода в Фергане

Узбекистан     40°34′58″N   68°19′41″E
темп.,
°C
ветер,
м/с
пор.,
м/с
влажн.,
%
обл.,
%
осадки,
мм/ч
давл.,
гПа
погр.,
м
14 июня, пн
пн1423:00+24ссз411180 0.0 1007221
02:00+20з34200 0.0 100844
05:00+18зсз46240 0.0 100879
08:00+23сз34240 0.0 1009470
11:00+29сз44160 0.0 10071105
14:00+33зсз4490 0.0 10051913
17:00+33сз24100 0.0 10032493
20:00+26ссв22170 0.0 100311
15 июня, вт
вт1523:00+22ссз34200 0.0 100442
02:00+19з34230 0.0 100441
05:00+18з46220 0.0 100573
08:00+24з45200 0.0 1006563
11:00+29з44150 0.0 10051204
14:00+33з33110 0.0 10032098
17:00+34св22100 0.0 10032597
20:00+27св33140 0.0 100315
16 июня, ср
ср1623:00+25зсз12140 0.0 100312
02:00+20ссз22290 0.0 100317
05:00+19з46310 0.0 100569
08:00+26з46300 0.0 1006544
11:00+31зсз45190 0.0 10051553
14:00+35зсз46130 0.0 10033066
17:00+35сз56110 0.0 10023509
20:00+27ссз33220 0.0 100315
17 июня, чт
чт1723:00+24ссз222341 0.0 100415
02:00+21з453254 0.0 100459
05:00+20з35305 0.0 100569
08:00+26зсз46235 0.0 1006519
11:00+32зсз44165 0.0 10051198
14:00+35зсз44130 0.0 10032894
17:00+36сз35110 0.0 10033760
20:00+28св511220 0.0 1004189
18 июня, пт
пт1823:00+25вюв23260 0.0 100413
02:00+22с33290 0.0 100521
05:00+21ююв11320 0.0 100511
08:00+27сз11240 0.0 1006242
11:00+34ссв33160 0.0 10051582
14:00+37с44115 0.0 10043329
17:00+36с44105 0.0 10043004
20:00+29св34175 0.0 100428